Location: Fort Worth, Tx
(32.7431°N, 97.3695°W)
Time: 13:50:18
(UTC-05:00)

Vanguard 3 - All Passes

Search period start: 22 February 2024 00:00
Search period end: 03 March 2024 00:00
Orbit: 508 x 3239 km, 33.3° (Epoch: 22 February)

Date Brightness Start Highest point End Pass type
(mag) Time Alt. Az. Time Alt. Az. Time Alt. Az.
22 Feb - 01:45:21 10° W 02:03:22 88° N 02:13:52 10° E visible
22 Feb - 04:03:42 10° WNW 04:17:16 65° SSW 04:24:42 10° SE visible
22 Feb - 06:22:18 10° W 06:27:57 18° SW 06:32:08 10° S visible
22 Feb - 19:55:51 10° SSW 20:11:34 36° SE 20:27:46 10° E visible
22 Feb - 22:07:34 10° SW 22:27:10 69° SSE 22:43:28 10° ENE visible
23 Feb - 00:24:01 10° W 00:43:44 89° N 00:56:37 10° E visible
23 Feb - 02:42:30 10° W 02:59:06 84° SSW 03:08:23 10° ESE visible
23 Feb - 05:00:41 10° W 05:11:32 39° SW 05:18:00 10° SSE visible
23 Feb - 18:40:47 10° S 18:52:33 22° SE 19:05:34 10° E daylight
23 Feb - 20:49:05 10° SW 21:07:01 54° SSE 21:24:31 10° ENE visible
23 Feb - 23:03:20 10° WSW 23:23:30 84° SSE 23:38:49 10° E visible
24 Feb - 01:21:05 10° W 01:39:58 88° N 01:51:28 10° E visible
24 Feb - 03:39:31 10° WNW 03:54:14 63° SSW 04:02:27 10° SE visible
24 Feb - 05:58:46 10° W 06:05:04 18° SW 06:09:42 10° S visible
24 Feb - 19:32:04 10° SSW 19:47:24 39° SE 20:04:20 10° E visible
24 Feb - 21:43:44 10° WSW 22:03:01 72° SSE 22:20:22 10° ENE visible
24 Feb - 23:59:53 10° W 00:20:00 88° N 00:33:59 10° E visible
25 Feb - 02:18:12 10° W 02:35:51 81° SSW 02:46:04 10° ESE visible
25 Feb - 04:36:40 10° W 04:48:31 38° SW 04:55:40 10° SSE visible
25 Feb - 18:16:57 10° S 18:28:34 24° SE 18:42:07 10° E daylight
25 Feb - 20:25:25 10° SW 20:42:47 57° SSE 21:01:06 10° ENE visible
25 Feb - 22:39:26 10° WSW 22:59:29 86° SSE 23:15:53 10° E visible
26 Feb - 00:56:51 10° W 01:16:26 89° N 01:28:58 10° E visible
26 Feb - 03:15:14 10° WNW 03:31:01 61° SSW 03:40:07 10° SE night (unlit)
26 Feb - 05:35:05 10° W 05:42:03 18° SW 05:47:10 10° S visible
26 Feb - 17:07:55 10° SE 17:10:28 10° SE 17:13:07 10° ESE daylight
26 Feb - 19:08:30 10° SSW 19:23:15 41° SE 19:40:41 10° E daylight
26 Feb - 21:20:03 10° WSW 21:38:49 75° SSE 21:57:06 10° ENE visible
26 Feb - 23:35:53 10° W 23:56:09 88° N 00:11:13 10° E visible
27 Feb - 01:53:53 10° WNW 02:12:25 79° SSW 02:23:38 10° ESE visible
27 Feb - 04:12:32 10° W 04:25:21 37° SW 04:33:13 10° SSE visible
27 Feb - 17:53:21 10° S 18:04:36 25° SE 18:18:26 10° E daylight
27 Feb - 20:01:56 10° SW 20:18:33 60° SSE 20:37:31 10° ENE visible
27 Feb - 22:15:41 10° WSW 22:35:22 87° S 22:52:48 10° E visible
28 Feb - 00:32:42 10° W 00:52:43 89° SSW 01:06:22 10° E visible
28 Feb - 02:50:54 10° WNW 03:07:40 59° SSW 03:17:39 10° SE visible
28 Feb - 05:11:17 10° W 05:18:53 18° SW 05:24:31 10° SSW visible
28 Feb - 16:42:57 10° SE 16:46:46 11° SE 16:50:54 10° ESE daylight
28 Feb - 18:45:08 10° SSW 18:59:07 43° SE 19:16:51 10° ENE daylight
28 Feb - 20:56:34 10° WSW 21:14:35 77° SSE 21:33:40 10° ENE visible
28 Feb - 23:11:59 10° W 23:32:11 88° N 23:48:19 10° E visible
29 Feb - 01:29:35 10° WNW 01:48:48 77° SSW 02:01:04 10° ESE visible
29 Feb - 03:48:19 10° W 04:02:00 37° SW 04:10:41 10° SSE night (unlit)
29 Feb - 17:29:58 10° S 17:40:41 26° SE 17:54:33 10° E daylight
29 Feb - 19:38:38 10° SW 19:54:21 63° SSE 20:13:44 10° ENE visible
29 Feb - 21:52:06 10° WSW 22:11:13 89° S 22:29:33 10° E visible
01 Mar - 00:08:37 10° W 00:28:51 88° S 00:43:35 10° ESE visible
01 Mar - 02:26:33 10° WNW 02:44:07 57° SSW 02:55:04 10° SE visible
01 Mar - 04:47:25 10° W 04:55:35 18° SW 05:01:45 10° SSW night (unlit)
01 Mar - 16:18:51 10° SE 16:23:06 12° SE 16:27:53 10° ESE daylight
01 Mar - 18:21:56 10° SSW 18:35:03 45° SE 18:52:50 10° ENE daylight
01 Mar - 20:33:15 10° WSW 20:50:23 79° SSE 21:10:03 10° ENE visible
01 Mar - 22:48:14 10° W 23:08:06 88° N 23:25:16 10° E visible
02 Mar - 01:05:21 10° WNW 01:25:01 75° SSW 01:38:21 10° ESE visible
02 Mar - 03:24:04 10° W 03:38:30 36° SW 03:48:00 10° SSE night (unlit)
02 Mar - 17:06:47 10° S 17:16:51 27° SE 17:30:32 10° E daylight
02 Mar - 19:15:30 10° SW 19:30:13 65° SSE 19:49:47 10° ENE visible
02 Mar - 21:28:40 10° W 21:47:02 90° S 22:06:08 10° E visible
